Temperature
1 1 1 1 1 0 1 1 1 2 1 1 0 -0 -1 -1 -1 -1 -2 -1 -1 -1 -1 -2 -2 -2 -2 -2 -3 -3 -3 -3 -3 -3 -4 -4 -4 -4 -5 -5 -5 -5 -5 -6
0 0 0 0 0 0 0 0 0 0 0 -0 -1 -1 -1 -2 -2 -2 -2 -2 -2 -2 -2 -2 -2 -3 -3 -3 -3 -3 -4 -4 -4 -4 -4 -5 -5 -5 -5 -5 -6 -6 -6 -6
0 -0 0 0 -0 -0 -1 -1 -1 -0 -0 -2 -3 -3 -2 -2 -2 -2 -2 -2 -2 -2 -3 -3 -3 -3 -3 -4 -4 -4 -4 -4 -5 -5 -5 -5 -5 -6 -6 -6 -6 -6 -6 -7
-1 -0 0 1 -1 -1 -1 -2 -3 -2 -3 -3 -3 -3 -2 -2 -2 -3 -2 -2 -3 -3 -3 -3 -4 -4 -4 -4 -4 -5 -5 -5 -5 -6 -6 -6 -6 -6 -6 -7 -7 -7 -7 -7
-2 -1 -1 -1 -2 -3 -2 -2 -3 -3 -4 -4 -4 -4 -3 -2 -3 -3 -3 -3 -3 -3 -4 -4 -4 -4 -5 -5 -5 -5 -5 -6 -6 -6 -6 -6 -7 -7 -7 -7 -7 -8 -8 -8
-2 -1 -0 -0 -3 -3 -2 -2 -3 -4 -5 -5 -4 -4 -4 -3 -3 -3 -4 -4 -4 -4 -4 -4 -5 -5 -5 -5 -5 -6 -6 -6 -7 -7 -7 -7 -7 -7 -8 -8 -8 -8 -8 -8
-3 -2 -2 -3 -4 -3 -1 -1 -3 -4 -4 -5 -5 -4 -4 -4 -4 -4 -4 -5 -5 -5 -5 -5 -5 -5 -5 -6 -6 -6 -7 -7 -7 -7 -8 -8 -8 -8 -8 -8 -9 -9 -9 -9
-4 -3 -2 -4 -5 -4 -3 -3 -3 -4 -4 -4 -5 -5 -5 -5 -5 -5 -5 -6 -5 -5 -6 -6 -6 -6 -6 -6 -7 -7 -7 -8 -8 -8 -8 -8 -9 -9 -9 -9 -9 -9 -9 -9
-4 -3 -4 -5 -4 -4 -3 -4 -4 -4 -4 -4 -5 -6 -6 -6 -6 -6 -6 -6 -6 -6 -6 -6 -6 -6 -6 -7 -7 -8 -8 -8 -8 -9 -9 -9 -9 -9 -9 -10 -10 -10 -10 -10
-6 -6 -5 -5 -5 -4 -4 -4 -4 -4 -4 -5 -6 -6 -6 -7 -7 -7 -7 -7 -7 -7 -7 -7 -7 -7 -7 -7 -8 -8 -8 -8 -9 -9 -9 -9 -10 -10 -10 -10 -10 -11 -11 -11
-6 -6 -6 -5 -5 -5 -5 -5 -5 -5 -5 -5 -6 -6 -7 -7 -7 -7 -7 -7 -7 -8 -8 -8 -8 -8 -8 -8 -8 -9 -9 -9 -9 -10 -10 -10 -10 -10 -10 -11 -11 -11 -11 -11
-5 -6 -7 -6 -5 -5 -5 -6 -6 -6 -6 -6 -6 -7 -7 -7 -8 -8 -8 -8 -8 -8 -8 -8 -9 -9 -9 -9 -9 -9 -9 -10 -10 -10 -10 -10 -10 -11 -11 -11 -11 -11 -12 -12
-6 -6 -6 -6 -6 -6 -6 -7 -7 -7 -7 -7 -7 -8 -8 -8 -8 -8 -9 -9 -9 -9 -9 -9 -9 -9 -9 -10 -10 -10 -10 -10 -10 -11 -11 -11 -11 -11 -11 -11 -11 -12 -12 -12
-7 -7 -7 -7 -8 -7 -7 -8 -8 -8 -8 -8 -8 -8 -8 -9 -9 -9 -9 -10 -10 -10 -10 -10 -10 -10 -10 -10 -10 -10 -11 -11 -11 -11 -11 -11 -12 -12 -12 -12 -12 -12 -12 -12
-8 -8 -8 -8 -8 -8 -8 -8 -8 -9 -9 -9 -9 -9 -9 -9 -10 -10 -10 -10 -10 -10 -10 -10 -10 -10 -11 -11 -11 -11 -11 -11 -11 -12 -12 -12 -12 -12 -12 -12 -12 -12 -12 -12
-8 -8 -9 -9 -9 -9 -9 -9 -9 -9 -10 -10 -10 -10 -10 -10 -10 -11 -11 -11 -11 -11 -11 -11 -11 -11 -11 -11 -12 -12 -12 -12 -12 -12 -12 -12 -12 -13 -13 -13 -13 -13 -13 -13
-9 -10 -10 -10 -10 -10 -10 -10 -10 -10 -10 -10 -11 -11 -11 -11 -11 -11 -11 -11 -11 -12 -12 -12 -12 -12 -12 -12 -12 -12 -12 -13 -13 -13 -13 -13 -13 -13 -13 -13 -13 -13 -13 -13
-10 -9 -10 -10 -10 -10 -10 -10 -10 -10 -11 -11 -11 -11 -11 -11 -11 -12 -12 -12 -12 -12 -12 -12 -13 -13 -13 -13 -13 -13 -13 -13 -13 -13 -13 -13 -13 -14 -14 -14 -14 -14 -14 -14
-10 -10 -10 -10 -10 -10 -11 -11 -11 -11 -11 -11 -12 -12 -12 -12 -12 -12 -12 -12 -12 -12 -13 -13 -13 -13 -13 -13 -14 -14 -14 -14 -14 -14 -14 -14 -14 -14 -14 -14 -14 -14 -14 -14
-10 -10 -10 -11 -11 -11 -11 -11 -11 -11 -12 -12 -12 -12 -12 -12 -12 -12 -13 -13 -13 -13 -13 -13 -14 -14 -14 -14 -14 -14 -14 -14 -14 -14 -14 -14 -14 -14 -14 -15 -15 -15 -15 -15
-11 -11 -11 -11 -11 -11 -12 -12 -12 -12 -12 -12 -12 -12 -12 -13 -13 -13 -13 -13 -13 -14 -14 -14 -14 -14 -14 -15 -15 -15 -15 -15 -15 -15 -15 -15 -15 -15 -15 -15 -15 -15 -15 -15
-11 -11 -11 -11 -12 -12 -12 -12 -12 -12 -12 -12 -13 -13 -13 -13 -13 -13 -13 -14 -14 -14 -14 -14 -14 -15 -15 -15 -15 -15 -15 -15 -15 -15 -15 -15 -15 -15 -15 -15 -15 -15 -15 -15
-12 -12 -12 -12 -12 -12 -12 -13 -13 -13 -13 -13 -13 -13 -13 -13 -14 -14 -14 -14 -14 -14 -14 -14 -15 -15 -15 -15 -15 -15 -15 -15 -15 -16 -16 -16 -16 -16 -16 -16 -16 -15 -15 -15
-12 -12 -12 -13 -13 -13 -13 -13 -13 -13 -13 -13 -13 -14 -14 -14 -14 -14 -14 -14 -14 -15 -15 -15 -15 -15 -15 -15 -15 -15 -15 -16 -16 -16 -16 -16 -16 -16 -16 -16 -16 -16 -16 -16
-12 -12 -13 -13 -13 -13 -13 -13 -13 -13 -13 -13 -14 -14 -14 -14 -14 -14 -15 -15 -15 -15 -15 -15 -15 -15 -15 -15 -16 -16 -16 -16 -16 -16 -16 -16 -16 -16 -16 -16 -16 -16 -16 -16
-13 -13 -13 -13 -13 -13 -13 -14 -14 -14 -14 -14 -14 -14 -14 -14 -15 -15 -15 -15 -15 -15 -15 -15 -15 -15 -16 -16 -16 -16 -16 -16 -16 -16 -16 -16 -16 -16 -16 -16 -16 -16 -16 -16
-13 -13 -14 -14 -14 -14 -14 -14 -14 -14 -14 -14 -14 -14 -15 -15 -15 -15 -15 -15 -15 -15 -15 -15 -16 -16 -16 -16 -16 -16 -16 -16 -16 -16 -16 -17 -17 -17 -17 -17 -17 -16 -16 -16
Wind_Speed
4 3 2 3 5 6 8 8 8 8 8 10 6 4 3 2 2 3 2 2 3 2 2 3 3 2 2 2 2 3 3 3 3 2 2 2 2 1 1 1 1 1 2 3
4 3 2 4 7 8 9 7 8 8 9 6 2 0 1 2 3 3 2 2 2 2 2 2 2 2 2 2 2 2 3 2 2 2 2 1 1 1 0 1 1 1 2 3
4 3 3 6 7 8 5 5 5 8 7 1 0 2 3 3 4 4 3 2 2 2 2 2 2 2 3 2 2 3 2 2 2 2 1 1 1 0 1 1 2 2 3 3
1 2 6 5 1 3 4 3 4 4 3 2 3 2 1 1 3 2 2 2 2 2 2 2 2 2 2 3 3 3 2 1 1 1 1 0 0 0 1 1 2 2 3 4
2 3 6 5 2 1 3 4 3 5 4 2 1 3 3 2 1 2 2 2 2 2 3 3 3 3 4 3 3 3 2 1 0 1 1 0 0 1 1 1 2 2 3 3
2 3 5 5 2 1 2 4 3 3 4 2 1 0 3 2 2 2 2 3 3 3 4 3 2 3 4 3 3 1 0 0 0 1 0 0 1 1 1 1 2 3 4 4
3 4 6 4 3 1 2 5 2 2 3 3 3 4 1 2 3 3 3 3 4 4 3 2 2 4 4 3 1 1 0 1 1 1 0 0 1 1 1 2 2 3 4 4
3 4 7 2 2 3 4 2 1 0 1 2 2 1 2 2 3 3 3 3 4 4 3 2 3 4 3 1 0 1 1 1 1 1 1 1 1 2 2 1 2 3 4 5
5 5 2 1 2 2 1 2 1 0 0 3 3 2 2 2 2 3 3 3 3 4 3 3 2 3 2 0 1 2 2 1 1 1 1 2 1 2 2 2 2 3 3 4
3 5 5 3 3 3 2 2 2 0 1 2 2 2 2 2 2 2 2 2 3 3 3 2 2 2 1 0 1 2 1 0 1 1 2 2 2 2 2 2 3 4 4 4
4 5 4 4 3 4 3 2 2 2 1 2 3 2 2 2 2 2 2 2 2 2 2 1 1 1 1 1 1 1 0 1 1 1 2 2 2 2 3 3 4 5 4 4
6 4 3 4 4 3 2 2 1 2 2 2 2 2 2 2 2 2 2 2 2 2 1 1 1 2 2 1 1 1 1 1 1 2 2 2 3 4 5 6 8 9 9 8
4 4 2 3 4 4 2 2 2 2 2 3 3 3 3 2 2 2 2 2 1 1 1 1 2 2 3 2 1 1 2 2 2 2 2 3 3 3 5 6 8 9 10 11
2 2 2 2 3 3 3 3 4 5 5 4 3 3 3 3 3 3 2 1 1 1 1 2 2 3 3 2 1 1 2 3 3 2 3 3 3 3 4 5 6 6 8 11
4 2 2 1 2 3 3 4 5 5 4 4 4 3 3 2 2 2 2 2 2 2 2 2 3 4 3 2 2 2 2 2 3 3 3 3 3 3 4 4 5 6 6 7
4 2 1 1 2 3 3 3 3 2 3 3 3 3 2 2 2 2 2 2 2 2 2 2 3 3 3 3 3 3 3 5 4 3 3 3 3 3 4 4 5 5 6 6
1 2 1 1 1 1 2 1 1 1 2 2 2 2 3 3 2 2 2 2 2 2 3 3 3 4 3 3 3 3 3 4 6 4 3 3 3 4 4 5 5 6 6 8
2 1 1 1 1 0 1 1 2 2 1 1 1 2 2 1 1 2 2 3 3 3 3 3 3 3 3 3 3 2 3 3 3 3 3 4 4 4 4 5 6 7 7 8
2 2 2 1 1 1 1 1 1 1 1 2 1 1 1 1 1 1 2 2 3 4 4 4 5 4 4 5 5 2 3 3 4 4 4 6 6 4 5 5 6 7 7 7
3 3 3 3 3 2 1 1 1 1 2 1 1 1 1 1 1 2 2 2 3 3 4 5 4 4 4 5 5 2 3 4 4 4 4 4 5 5 5 6 7 7 7 7
2 2 2 2 2 2 2 1 1 1 1 1 1 1 1 2 2 1 2 3 4 3 4 6 4 4 4 4 4 2 3 4 4 4 5 5 5 6 6 7 7 7 7 7
1 1 2 2 2 2 2 1 1 1 1 1 1 1 1 2 2 2 2 3 4 6 4 3 4 6 7 5 2 3 4 4 4 4 5 5 6 6 7 7 7 7 7 7
1 1 1 1 1 1 2 2 1 1 1 1 2 2 2 2 2 2 4 3 3 7 5 4 7 10 10 4 2 3 4 4 5 5 5 6 6 6 7 7 7 7 8 8
1 1 1 1 2 2 2 2 2 2 2 2 2 2 2 2 3 2 3 6 8 8 5 7 11 11 9 3 3 3 4 5 5 6 6 6 6 6 6 7 7 7 8 8
2 2 2 1 1 1 1 2 2 2 2 2 3 3 2 2 3 4 4 5 8 8 5 8 11 11 6 4 4 4 5 5 6 6 5 6 6 6 7 7 7 8 8 8
1 1 0 0 0 1 1 1 2 2 2 3 3 3 3 2 3 3 4 4 6 8 6 5 6 7 5 5 5 5 5 7 7 6 6 6 7 7 7 8 9 8 8 9
2 1 1 2 2 1 1 1 2 2 2 3 4 4 3 3 3 4 4 4 5 5 5 5 5 5 5 5 6 6 6 6 6 6 6 7 7 7 8 9 9 9 9 10
Wind_Direction
262 272 218 234 232 200 202 208 217 235 235 261 256 247 234 185 145 126 121 122 132 141 145 138 131 133 137 140 143 149 152 161 179 179 173 170 170 179 207 254 271 275 284 291
281 273 258 282 263 228 227 227 231 250 264 270 279 216 185 184 173 175 178 163 146 139 135 141 149 150 138 135 139 138 149 162 157 147 153 167 181 177 213 272 284 283 278 282
270 306 329 277 249 216 209 207 198 231 244 227 241 233 214 201 190 193 191 173 164 162 156 149 151 150 147 142 126 126 133 133 137 142 153 181 192 165 254 274 285 286 285 283
268 20 246 251 347 189 194 231 217 233 256 245 235 246 269 197 189 202 188 171 163 148 133 114 108 110 108 106 111 116 110 103 120 130 136 168 169 223 275 280 285 287 291 289
175 236 273 294 286 174 196 273 249 228 248 269 351 33 349 360 124 189 178 158 150 139 129 113 105 108 104 95 94 97 99 93 81 135 149 185 249 278 287 295 299 294 295 293
170 213 250 274 303 292 135 290 291 201 221 227 105 308 280 353 70 83 92 107 110 104 100 99 98 107 108 103 95 92 93 73 42 60 114 241 259 280 301 295 290 300 305 302
208 231 265 287 312 83 162 269 311 198 206 185 193 220 222 72 77 95 97 104 106 105 102 102 105 109 107 104 114 155 85 61 51 41 7 285 321 325 317 312 313 305 303 303
180 213 258 314 106 172 233 309 336 262 196 163 160 123 100 91 96 102 97 96 103 103 91 77 92 110 107 105 130 87 80 66 40 15 357 5 358 327 325 315 315 308 306 307
198 219 284 181 205 259 293 299 305 299 146 140 138 147 127 111 105 103 102 98 99 106 92 64 72 110 124 172 74 94 85 60 14 2 356 348 325 310 319 315 301 300 299 298
248 270 275 277 293 314 322 299 313 223 146 139 145 149 129 121 101 97 94 93 91 95 90 56 44 71 123 70 82 100 98 15 348 345 335 331 316 300 292 287 286 288 288 292
262 283 304 301 299 306 326 357 13 20 58 132 140 148 144 130 108 101 89 77 88 95 95 52 30 30 22 44 87 96 80 308 317 312 300 305 302 281 279 262 266 284 280 283
255 266 258 289 330 345 348 350 13 49 41 56 122 142 125 123 112 104 93 78 73 74 63 18 11 351 346 359 112 155 274 293 291 288 291 293 295 303 301 298 302 302 302 301
265 307 298 301 342 5 15 23 43 65 79 70 64 91 101 100 88 84 81 73 66 49 27 5 355 336 332 331 324 229 252 273 278 284 286 290 293 299 308 315 313 311 311 312
309 339 317 322 339 5 36 53 63 62 61 66 70 74 80 76 73 72 58 43 44 39 19 4 347 325 322 324 311 284 271 278 285 271 273 279 282 286 291 300 309 310 313 312
334 323 267 317 23 38 50 63 65 54 49 49 56 66 74 79 73 52 29 33 46 37 16 3 344 324 329 328 318 298 287 278 276 272 275 277 281 284 285 287 291 297 305 311
331 1 59 58 33 42 53 58 66 46 39 40 41 42 46 69 73 53 36 37 46 3 338 335 319 315 326 326 321 309 293 294 298 285 280 282 282 282 284 286 289 292 295 299
327 312 312 327 355 27 31 36 57 37 39 40 27 37 53 65 61 38 16 9 357 323 314 311 308 316 324 320 311 302 297 296 303 299 283 278 277 277 280 283 287 290 289 294
281 279 246 207 204 105 36 38 42 37 27 10 36 54 59 59 20 343 343 349 349 338 324 312 308 320 326 322 310 300 300 294 289 282 284 283 284 282 282 283 286 289 292 298
28 44 52 55 71 103 86 50 26 18 21 37 55 51 18 347 331 331 340 345 337 324 323 320 325 337 323 314 321 305 303 298 295 292 288 293 298 293 289 287 287 287 291 294
29 43 52 48 52 67 64 39 38 27 18 33 42 30 0 337 331 327 327 309 288 280 295 310 320 317 308 303 313 310 307 300 294 293 293 291 291 292 290 289 289 289 289 290
33 40 47 51 45 41 42 48 52 16 0 22 32 331 320 326 329 325 321 311 310 303 306 316 323 307 300 307 317 310 300 294 289 288 290 290 290 291 291 291 291 291 292 293
29 45 46 54 57 30 19 28 28 7 2 2 357 352 339 326 326 317 286 271 295 313 323 309 303 303 314 321 318 303 298 292 288 287 287 288 288 289 289 291 291 291 290 290
39 52 59 57 60 36 20 14 1 351 332 325 321 311 300 297 297 296 304 303 303 311 322 305 309 315 322 328 311 298 294 292 289 286 285 285 285 285 286 287 287 289 290 291
61 57 54 55 72 64 18 351 350 344 329 317 311 302 296 304 306 283 278 307 318 319 319 313 318 319 327 332 306 295 291 289 286 284 284 285 285 286 286 287 288 290 289 291
64 60 61 70 60 16 347 349 354 348 341 330 322 316 303 275 279 302 308 308 315 323 320 318 320 323 328 312 302 295 292 287 287 289 287 288 287 286 287 287 288 290 290 289
66 63 41 352 336 336 344 348 338 329 331 328 326 324 321 314 303 304 308 311 311 318 319 312 314 316 313 304 298 295 293 295 300 298 290 288 287 286 287 288 288 288 288 288
59 52 43 28 16 9 358 341 327 324 323 319 317 321 322 321 319 317 316 316 316 314 311 311 310 307 304 302 300 298 296 293 291 290 289 287 286 286 287 287 289 290 290 289
Height
1477 1475 1475 1475 1474 1476 1476 1474 1475 1470 1471 1464 1464 1465 1465 1466 1466 1467 1468 1469 1470 1471 1472 1474 1475 1477 1478 1479 1481 1482 1483 1484 1485 1486 1487 1488 1488 1488 1489 1489 1488 1488 1487 1486
1477 1474 1474 1474 1471 1472 1472 1472 1470 1468 1467 1463 1463 1463 1464 1464 1465 1466 1467 1468 1469 1470 1471 1472 1473 1475 1476 1477 1478 1480 1480 1481 1482 1483 1484 1484 1485 1485 1485 1485 1485 1484 1483 1482
1477 1476 1473 1472 1467 1467 1468 1467 1467 1466 1464 1463 1463 1462 1462 1463 1463 1464 1465 1466 1467 1468 1470 1471 1472 1473 1474 1475 1476 1477 1478 1479 1479 1480 1481 1481 1481 1481 1481 1481 1481 1480 1479 1479
1481 1478 1476 1465 1464 1463 1464 1465 1464 1462 1462 1461 1461 1461 1461 1461 1462 1462 1463 1464 1465 1467 1468 1470 1471 1472 1473 1474 1474 1475 1476 1477 1477 1478 1478 1478 1478 1478 1478 1478 1477 1476 1475 1475
1482 1481 1473 1466 1464 1465 1466 1464 1462 1462 1461 1460 1460 1460 1460 1460 1461 1462 1463 1463 1464 1466 1467 1468 1469 1470 1471 1472 1473 1473 1474 1474 1475 1475 1475 1475 1475 1475 1475 1474 1473 1473 1472 1471
1483 1478 1472 1464 1464 1463 1465 1464 1459 1459 1460 1460 1461 1463 1462 1460 1460 1461 1462 1463 1463 1464 1466 1467 1468 1469 1469 1470 1471 1471 1471 1472 1472 1472 1472 1472 1472 1471 1471 1471 1470 1469 1468 1467
1483 1480 1471 1467 1464 1463 1467 1463 1459 1458 1458 1459 1460 1460 1460 1459 1459 1460 1460 1461 1462 1463 1464 1465 1467 1467 1468 1468 1469 1469 1470 1470 1470 1470 1470 1469 1469 1468 1468 1467 1467 1466 1464 1463
1482 1481 1473 1466 1465 1466 1464 1460 1458 1457 1457 1457 1457 1457 1458 1458 1458 1459 1459 1460 1461 1462 1463 1464 1465 1466 1466 1466 1467 1467 1467 1467 1467 1467 1467 1467 1466 1465 1465 1464 1463 1462 1460 1459
1475 1472 1467 1464 1463 1462 1461 1459 1458 1457 1457 1456 1456 1456 1456 1457 1458 1458 1459 1460 1461 1461 1462 1463 1464 1465 1465 1465 1465 1465 1465 1465 1465 1465 1465 1464 1463 1462 1462 1461 1459 1458 1457 1455
1472 1467 1464 1462 1461 1460 1459 1458 1457 1456 1456 1455 1455 1455 1456 1456 1457 1458 1459 1459 1460 1460 1461 1462 1463 1463 1464 1464 1464 1464 1463 1463 1463 1462 1462 1461 1461 1460 1459 1457 1456 1455 1453 1451
1470 1465 1462 1459 1459 1458 1458 1457 1456 1455 1455 1454 1454 1454 1455 1455 1456 1457 1458 1458 1459 1460 1460 1461 1461 1462 1462 1462 1462 1462 1461 1461 1460 1460 1459 1459 1458 1457 1456 1454 1453 1452 1450 1448
1466 1462 1462 1459 1458 1457 1456 1455 1454 1454 1453 1454 1454 1454 1454 1455 1456 1456 1457 1458 1458 1459 1459 1459 1460 1460 1460 1460 1460 1459 1459 1458 1458 1457 1457 1456 1455 1454 1452 1451 1450 1448 1447 1445
1463 1461 1460 1458 1457 1456 1455 1455 1454 1453 1453 1453 1453 1454 1454 1454 1455 1455 1456 1457 1457 1457 1458 1458 1458 1458 1459 1458 1458 1457 1457 1456 1455 1455 1454 1453 1451 1450 1448 1447 1446 1444 1442 1440
1461 1460 1458 1457 1456 1456 1455 1454 1454 1453 1453 1453 1453 1453 1454 1454 1454 1455 1455 1456 1456 1456 1456 1457 1457 1457 1456 1456 1455 1455 1454 1453 1453 1452 1451 1449 1448 1447 1445 1443 1441 1439 1438 1436
1459 1459 1458 1456 1455 1455 1454 1454 1453 1453 1453 1453 1453 1453 1453 1453 1453 1454 1454 1455 1455 1455 1455 1455 1455 1454 1454 1454 1453 1452 1451 1450 1450 1448 1447 1446 1445 1443 1441 1439 1437 1435 1433 1431
1457 1456 1456 1455 1454 1454 1453 1453 1453 1453 1453 1453 1453 1452 1452 1453 1453 1453 1454 1454 1454 1453 1453 1453 1453 1452 1452 1451 1450 1449 1448 1448 1447 1445 1444 1443 1441 1439 1437 1435 1433 1431 1429 1427
1456 1454 1454 1454 1453 1453 1453 1453 1453 1453 1453 1453 1452 1452 1452 1452 1452 1453 1453 1453 1452 1452 1452 1451 1450 1450 1449 1448 1447 1446 1445 1444 1443 1442 1440 1439 1437 1435 1433 1431 1429 1427 1425 1423
1455 1454 1454 1454 1453 1453 1453 1453 1453 1453 1453 1453 1452 1452 1452 1452 1452 1451 1451 1451 1451 1450 1450 1449 1448 1447 1446 1445 1444 1443 1442 1441 1440 1438 1437 1435 1433 1432 1430 1428 1425 1423 1421 1419
1454 1453 1453 1453 1453 1453 1453 1453 1453 1453 1452 1452 1452 1451 1451 1451 1451 1451 1450 1450 1449 1448 1448 1447 1446 1445 1444 1443 1441 1440 1439 1437 1436 1435 1433 1431 1430 1428 1426 1424 1421 1419 1417 1414
1453 1453 1453 1453 1453 1453 1453 1453 1452 1452 1452 1452 1451 1451 1450 1450 1450 1449 1449 1448 1447 1446 1446 1445 1443 1442 1441 1439 1438 1437 1435 1434 1432 1431 1429 1427 1426 1424 1422 1420 1417 1415 1413 1410
1453 1453 1453 1453 1453 1453 1453 1452 1452 1452 1451 1451 1451 1450 1450 1449 1449 1448 1447 1446 1446 1445 1444 1443 1441 1440 1438 1437 1435 1433 1432 1430 1428 1427 1425 1423 1422 1420 1418 1415 1413 1411 1408 1406
1453 1453 1453 1453 1453 1452 1453 1452 1452 1452 1451 1451 1450 1449 1449 1448 1448 1447 1446 1445 1444 1443 1441 1440 1439 1437 1436 1434 1432 1430 1428 1426 1425 1423 1421 1419 1417 1415 1413 1411 1408 1406 1404 1401
1453 1453 1453 1453 1452 1452 1452 1452 1452 1451 1451 1450 1449 1449 1448 1447 1446 1445 1444 1443 1442 1441 1439 1438 1436 1434 1432 1430 1428 1426 1425 1423 1421 1419 1417 1415 1413 1411 1409 1406 1404 1401 1399 1396
1453 1453 1453 1452 1452 1452 1452 1452 1451 1451 1450 1450 1449 1448 1447 1446 1445 1444 1443 1441 1440 1438 1436 1435 1433 1431 1429 1427 1425 1423 1421 1419 1417 1415 1413 1411 1409 1406 1404 1402 1399 1397 1394 1391
1453 1453 1452 1452 1452 1452 1451 1451 1451 1450 1449 1448 1448 1447 1446 1444 1443 1442 1440 1439 1437 1435 1433 1431 1430 1428 1425 1423 1421 1419 1417 1415 1413 1411 1408 1406 1404 1402 1399 1397 1394 1392 1389 1387
1452 1452 1452 1452 1452 1452 1451 1450 1450 1449 1448 1447 1446 1445 1444 1443 1441 1440 1438 1436 1434 1432 1430 1428 1426 1424 1422 1420 1418 1415 1413 1411 1409 1406 1404 1402 1399 1397 1394 1392 1390 1387 1385 1382
1452 1452 1452 1452 1452 1451 1451 1450 1449 1448 1447 1445 1444 1443 1442 1440 1439 1437 1436 1434 1432 1429 1427 1425 1423 1421 1418 1416 1414 1411 1409 1407 1404 1402 1400 1397 1395 1392 1390 1387 1385 1382 1380 1377